Tracking 18850 objects as of 22-Nov-2017
HD Live streaming from Space Station
objects crossing your sky now

WORLDVIEW 2 DEB

Track WORLDVIEW 2 DEB now!
10-day predictions


NORAD ID: 41741
Int'l Code: 2009-055J
Perigee: 765.2 km
Apogee: 777.0 km
Inclination: 98.5 °
Period: 100.1 minutes
Semi major axis: 7142 km
RCS: Unknown
Launch date: October 8, 2009
Source: United States (US)
Launch site: AIR FORCE WESTERN TEST RANGE (AFWTR)

Note: This is SATELLITE DEBRIS
aabbcc
Your satellite tracking list
Your tracking list is empty




NASA's NSSDC Master Catalog

Two Line Element Set (TLE):
1 41741U 09055J   17325.16964194  .00001948  00000-0  65363-3 0  9992
2 41741  98.5461  40.8081 0008229 142.6092 217.5669 14.38346966 70360
Source of the keplerian elements: AFSPC